Flag for U.S.A. Weather past 2 weeks in Corpus Christi, Texas, U.S.A.

Now
61 °F

Mostly cloudy.


Feels Like: 61 °F
Forecast: 50 / 61 °F
Wind: 10 mph from North

Location: Corpus Christi International Airport

Current Time: Dec 19, 2014 at 7:45:57 PM

Latest Report: Dec 19, 2014 at 6:51 PM


Visibility: 10 mi

Pressure: 30.05 "Hg

Humidity: 83%

Dew point: 56 °F

Location of Corpus ChristiLocation

Historic Weather in Corpus Christi — Graph

°F

Corpus Christi temperature yesterday

Maximum temperature yesterday: 78 °F (at 12:51 PM)
Minimum temperature yesterday: 67 °F (at 7:51 AM)
Average temperature yesterday: 71 °F

Past Weeks' High & Low Weather Summary

 TemperatureHumidityPressure
High79 °F (Dec 14, 1:51 PM)100% (Dec 5, 1:51 AM)30.35 "Hg (Dec 5, 1:51 AM)
Low47 °F (Dec 9, 6:51 AM)31% (Dec 9, 2:51 PM)29.85 "Hg (Dec 14, 3:51 PM)
Average66 °F81%30.13 "Hg
* Reported Dec 4 5:51 PM — Dec 19 5:51 PM, Corpus Christi, Weather by CustomWeather, © 2014

Note: Actual official high and low records may vary slightly from our data, if they occured in-between our weather recording intervals... More about our weather records

Advertising

Corpus Christi weather history for previous 24 hours

 ConditionsComfort  
Time TempWeatherWind HumidityBarometerVisibility
5:51 PM
Dec 19
61 °FMostly cloudy.12 mph83%30.04 "Hg10 mi
4:51 PM60 °FMostly cloudy.15 mph83%30.03 "Hg10 mi
3:51 PM61 °FOvercast.16 mph83%30.01 "Hg10 mi
2:51 PM60 °FMostly cloudy.14 mph86%30.00 "Hg10 mi
1:51 PM59 °FMostly cloudy.14 mph87%30.00 "Hg10 mi
12:51 PM56 °FLight rain. Mostly cloudy.16 mph90%30.02 "Hg10 mi
11:51 AM56 °FDrizzle. Mostly cloudy.17 mph90%30.04 "Hg10 mi
10:51 AM56 °FDrizzle. Mostly cloudy.16 mph93%30.06 "Hg7 mi
9:51 AM58 °FLight rain. Mostly cloudy.21 mph90%30.04 "Hg10 mi
8:51 AM60 °FLight rain. Mostly cloudy.16 mph96%30.01 "Hg7 mi
7:51 AM68 °FFog.No wind96%29.97 "Hg3 mi
6:51 AM68 °FLight rain. Fog.3 mph96%29.95 "Hg5 mi
5:51 AM68 °FLight rain. Fog.3 mph93%29.93 "Hg6 mi
4:51 AM68 °FMostly cloudy.3 mph93%29.94 "Hg9 mi
3:51 AM68 °FMostly cloudy.3 mph93%29.94 "Hg9 mi
2:51 AM68 °FOvercast.5 mph93%29.94 "Hg9 mi
1:51 AM68 °FPassing clouds.9 mph96%29.95 "Hg9 mi
12:51 AM69 °FMostly cloudy.8 mph93%29.97 "Hg9 mi
11:51 PM
Dec 18
69 °FOvercast.8 mph93%29.98 "Hg9 mi
10:51 PM69 °FLight rain. Mostly cloudy.8 mph93%29.99 "Hg7 mi
9:51 PM69 °FLight rain. Partly cloudy.7 mph93%29.99 "Hg9 mi
8:51 PM69 °FFog.9 mph96%29.99 "Hg5 mi
7:51 PM69 °FLight rain. Fog.7 mph93%29.98 "Hg5 mi
Weather by CustomWeather, © 2014

See weather overviewHow to use our weather pages